Miscellaneous Local Product
Issued by NWS North Platte, NE

Home | Current Version | Previous Version | Text Only | Print | Product List | Glossary On
Versions: 1 2 3 4 5 6 7 8 9 10 11 12 13 14 15 16 17 18 19 20 21 22 23 24 25 26 27 28 29 30 31 32 33 34 35 36 37 38 39 40 41 42 43 44 45 46 47 48 49 50
000
AXUS43 KLBF 100010
MISLBF


WESTERN AND NORTH CENTRAL NEBRASKA HOURLY WEATHER ROUNDUP
NATIONAL WEATHER SERVICE NORTH PLATTE NE
700 PM CDT WED JUL 09 2014

***STATIONS NOT REPORTING VARIABLES SUCH AS SKY/WEATHER OR
PRESSURE ARE PROVIDED BY THE NEBRASKA DEPARTMENT OF
ROADS...RAWS...AND APRS NETWORKS...AND ARE NOT UNDER
NATIONAL WEATHER SERVICE QUALITY CONTROL***

...OBSERVATIONS IN AND NEAR THE EASTERN PANHANDLE OF NEBRASKA...

CITY           SKY/WX    TMP DP  RH WIND       PRES   REMARKS
PINE RIDGE     SUNNY     78  61  55 E17       29.95F
CHADRON        SUNNY     85  62  46 E13       29.91F
ALLIANCE       MOSUNNY   93  50  23 NE7       29.91F HX  90
SIDNEY         MOSUNNY   85  56  37 S7        29.95F
WHITECLAY        N/A     78  60  52 E8          N/A
RUSHVILLE        N/A     82  62  50 E25         N/A
GORDON           N/A     80  64  56 E20         N/A
LISCO            N/A     96  40  14 CALM        N/A  HX  91
BIG SPRINGS      N/A     93  57  29 S8          N/A  HX  91
$$

...OBSERVATIONS IN NORTH CENTRAL NEBRASKA...

CITY           SKY/WX    TMP DP  RH WIND       PRES   REMARKS
VALENTINE      MOSUNNY   70  59  68 E14       29.99F
THEDFORD       SUNNY     75  63  65 E23G29    29.96S
AINSWORTH      PTSUNNY   64  59  81 E14       29.99F
O`NEILL        CLOUDY    64  59  83 E7        30.01F
ORD            TSTM      66  60  81 W9G20     29.97F
BROKEN BOW     MOSUNNY   75  63  66 E18G26    29.95F
BROWNLEE         N/A     73  59  62 E22         N/A
SPRINGVIEW       N/A     61  60  95 E5G12       N/A
ROSE             N/A     66  65  99 E14         N/A
NEWPORT          N/A     65  63  94 SE10        N/A
SARGENT          N/A     69  62  80 SE6G14      N/A
COMSTOCK         N/A     76  70  81 E13         N/A
CHAMBERS         N/A     63  60  91 E8          N/A
$$

...OBSERVATIONS IN SOUTHWEST NEBRASKA AND FAR NORTHEAST COLORADO...

CITY           SKY/WX    TMP DP  RH WIND       PRES   REMARKS
WRAY           FAIR      90  54  29 SE12G18   29.93S
HOLYOKE        FAIR      86  59  39 S12       29.93F
IMPERIAL       SUNNY     90  58  33 S16G23    29.90F
OGALLALA       SUNNY     89  58  34 S10       29.89F
NORTH PLATTE   TSTM      78  64  61 SE9       29.91R
MCCOOK         SUNNY     87  61  41 S20G28    29.90F
LEXINGTON      CLOUDY    84  60  42 S12       29.93S
PAXTON           N/A     91  63  39 S5          N/A  HX  92
SUTHERLAND       N/A     94  64  37 S7          N/A  HX  95
BRADY            N/A     81  62  51 NW3         N/A
GOTHENBURG       N/A     87  57  35 S9          N/A
CALLAWAY         N/A     84  66  54 S12         N/A
$$

...NORTH PLATTE AREA...

CITY           SKY/WX    TMP DP  RH WIND       PRES   REMARKS
AIRPORT        TSTM      78  64  61 SE9       29.91R
INDIAN HILLS     N/A     77  68  72 CALM        N/A
$$

...SOME WEATHER OBSERVATIONS FROM AROUND THE REGION...

CITY           SKY/WX    TMP DP  RH WIND       PRES   REMARKS
DENVER         CLOUDY    87  40  19 SE7       30.01F
LARAMIE        MOSUNNY   81  48  31 SE12      30.12F
CHEYENNE       MOSUNNY   85  47  26 S13G21    30.07F
SCOTTSBLUFF    SUNNY     94  50  22 E9        29.90F HX  91
RAPID CITY     SUNNY     77  56  48 SE14      29.97F
PIERRE         MOSUNNY   79  59  50 SE6       29.93F
WINNER         FAIR      75  57  53 S12G18    29.97F
SIOUX FALLS    MOSUNNY   81  55  40 NW5       29.98F
OMAHA          CLOUDY    81  56  42 S7        30.00F
GRAND ISLAND   LGT RAIN  70  62  76 SE21G43   29.93F
KANSAS CITY    MOSUNNY   80  58  46 NE8       30.01F
WICHITA        MOSUNNY   87  58  37 SE14      29.97F
HAYS           SUNNY     88  55  33 S24       29.94F
LIBERAL        SUNNY     91  63  38 SE21      29.97S HX  92
GOODLAND       SUNNY     86  62  44 SE23G30   29.95F
$$



USA.gov is the U.S. government's official web portal to all federal, state and local government web resources and services.